Mobile Downtown, AL

11:08 AM CDT on March 24, 2017 (GMT -0500)
Mobile Downtown

Weather History for KBFM - March, 2014

Change the Weather History Date:

Friday, March 7, 2014

  Actual Average Record
Temperature  
Mean Temperature 50 °F -  
Max Temperature 57 °F 65 °F 78 °F (2004)
Min Temperature 42 °F 46 °F 32 °F (2015)
Degree Days  
Heating Degree Days 16    
Moisture  
Dew Point 41 °F    
Average Humidity 80    
Maximum Humidity 93    
Minimum Humidity 57    
Precipitation  
Precipitation 0.00 in - - ()
Sea Level Pressure  
Sea Level Pressure 30.04 in    
Wind  
Wind Speed 11 mph (NNW)    
Max Wind Speed 18 mph    
Max Gust Speed -    
Visibility 10 miles    
Events      
Averages and records for this station are not official NWS values.
T = Trace of Precipitation, MM = Missing Value Source: NWS Daily Summary

Daily Weather History Graph

Daily Weather History Graph

Search for Another Location

Airport or City:

Trip Planner

Search our weather history database for the weather conditions in past years. The results will help you decide how hot, cold, wet, or windy it might be!

Date:

Astronomy

Mar. 07, 2014 Rise Set
Actual Time 6:11 AM CST 5:55 PM CST
Civil Twilight 5:47 AM CST 6:19 PM CST
Nautical Twilight 5:19 AM CST 6:47 PM CST
Astronomical Twilight 4:51 AM CST 7:15 PM CST
Moon 10:29 AM CST (3/7) No Moon Set
Length of Visible Light 12h 31m
Length of Day
11h 43m
Waxing Crescent, 42% of the Moon is Illuminated
Mar 7
Waxing Crescent
Mar 8
First Quarter
Mar 16
Full
Mar 23
Last Quarter
Mar 30
New

Hourly Weather History & Observations

Time (CST) Temp. Windchill Dew Point Humidity Pressure Visibility Wind Dir Wind Speed Gust Speed Precip Events Conditions
12:05 AM 45.0 °F 38.9 °F 42.1 °F 90% 29.99 in 10.0 mi NNW 12.7 mph - N/A   Overcast
12:12 AM 45.0 °F 39.3 °F 42.1 °F 90% 29.98 in 10.0 mi NNW 11.5 mph - N/A   Overcast
12:18 AM 45.0 °F 39.3 °F 42.1 °F 90% 29.98 in 10.0 mi NNW 11.5 mph - N/A   Overcast
12:53 AM 45.0 °F 39.3 °F 42.1 °F 90% 29.99 in 10.0 mi NNW 11.5 mph - N/A   Overcast
1:06 AM 45.0 °F 39.3 °F 41.0 °F 86% 29.99 in 10.0 mi North 11.5 mph - N/A   Overcast
1:44 AM 44.1 °F 37.4 °F 39.9 °F 85% 29.99 in 10.0 mi NNW 13.8 mph - N/A   Overcast
1:53 AM 44.1 °F 37.7 °F 41.0 °F 89% 29.99 in 10.0 mi NNW 12.7 mph - N/A   Overcast
2:19 AM 44.1 °F 37.7 °F 39.9 °F 85% 29.99 in 10.0 mi NNW 12.7 mph - N/A   Overcast
2:53 AM 43.0 °F 36.4 °F 39.0 °F 86% 30.00 in 10.0 mi NNW 12.7 mph - N/A   Overcast
3:27 AM 43.0 °F 34.8 °F 39.0 °F 86% 30.02 in 10.0 mi NW 18.4 mph - N/A   Overcast
3:53 AM 43.0 °F 35.1 °F 37.9 °F 82% 30.02 in 10.0 mi NNW 17.3 mph - N/A   Overcast
4:11 AM 43.0 °F 35.4 °F 37.9 °F 82% 30.01 in 10.0 mi North 16.1 mph - N/A   Overcast
4:53 AM 43.0 °F 35.7 °F 37.9 °F 82% 30.03 in 10.0 mi NNW 15.0 mph - N/A   Overcast
5:15 AM 42.1 °F 35.7 °F 37.9 °F 85% 30.03 in 10.0 mi North 11.5 mph - N/A   Overcast
5:53 AM 42.1 °F 35.7 °F 37.9 °F 85% 30.04 in 10.0 mi NNW 11.5 mph - N/A   Overcast
6:53 AM 43.0 °F 37.2 °F 37.9 °F 82% 30.06 in 10.0 mi NNW 10.4 mph - N/A   Overcast
7:53 AM 44.1 °F 38.6 °F 39.0 °F 82% 30.08 in 10.0 mi NNW 10.4 mph - N/A   Overcast
8:53 AM 46.0 °F 41.9 °F 39.0 °F 76% 30.09 in 10.0 mi North 8.1 mph - N/A   Overcast
9:53 AM 48.9 °F - 39.9 °F 71% 30.09 in 10.0 mi NNE 12.7 mph - N/A   Mostly Cloudy
10:53 AM 50.0 °F - 39.9 °F 68% 30.09 in 10.0 mi NNE 13.8 mph - N/A   Mostly Cloudy
11:53 AM 53.1 °F - 41.0 °F 64% 30.07 in 10.0 mi NE 11.5 mph - N/A   Mostly Cloudy
12:53 PM 55.9 °F - 41.0 °F 57% 30.06 in 10.0 mi NE 8.1 mph - N/A   Scattered Clouds
1:53 PM 55.9 °F - 41.0 °F 57% 30.04 in 10.0 mi North 4.6 mph - N/A   Scattered Clouds
2:53 PM 57.0 °F - 43.0 °F 59% 30.04 in 10.0 mi ENE 9.2 mph - N/A   Clear
3:53 PM 57.9 °F - 44.1 °F 60% 30.04 in 10.0 mi East 8.1 mph - N/A   Clear
4:53 PM 57.0 °F - 46.0 °F 67% 30.04 in 10.0 mi SE 6.9 mph - N/A   Clear
5:53 PM 54.0 °F - 45.0 °F 72% 30.05 in 10.0 mi Calm Calm - N/A   Clear
6:53 PM 51.1 °F - 45.0 °F 80% 30.06 in 10.0 mi WSW 4.6 mph - N/A   Clear
7:53 PM 48.9 °F - 44.1 °F 83% 30.07 in 10.0 mi SW 3.5 mph - N/A   Clear
8:53 PM 48.9 °F - 45.0 °F 86% 30.09 in 10.0 mi WSW 4.6 mph - N/A   Clear
9:53 PM 46.9 °F - 44.1 °F 90% 30.08 in 10.0 mi Calm Calm - N/A   Clear
10:53 PM 46.0 °F - 44.1 °F 93% 30.10 in 10.0 mi Calm Calm - N/A   Clear
11:53 PM 45.0 °F 43.5 °F 43.0 °F 93% 30.10 in 8.0 mi West 3.5 mph - N/A   Clear